| time (UTC) | temp F | wind direction | speed MPH | gust MPH | rain 1hr in | rain 24hr in | rain mn in | humidity % | barometer mb |
| 20260505041554 | 53 | 285 | 9.0 | 19.0 | 0.00 | 0.00 | 0.00 | 84 | 1013.4 |
| 20260505040053 | 54 | 219 | 7.0 | 13.0 | 0.00 | 0.00 | 0.00 | 82 | 1013.3 |
| 20260505034538 | 54 | 278 | 7.0 | 15.0 | 0.00 | 0.00 | 0.00 | 81 | 1013.1 |
| 20260505033039 | 54 | 317 | 9.0 | 16.0 | 0.00 | 0.00 | 0.00 | 80 | 1012.6 |
| 20260505031543 | 55 | 290 | 10.0 | 19.0 | 0.00 | 0.00 | 0.00 | 80 | 1012.5 |
| 20260505030037 | 56 | 281 | 10.0 | 22.0 | 0.00 | 0.00 | 0.00 | 78 | 1012.3 |
| 20260505024554 | 56 | 278 | 11.0 | 19.0 | 0.00 | 0.00 | 0.00 | 76 | 1012.4 |
| 20260505023044 | 57 | 297 | 10.0 | 22.0 | 0.00 | 0.00 | 0.00 | 75 | 1012.1 |
| 20260505021541 | 58 | 340 | 10.0 | 19.0 | 0.00 | 0.00 | 0.00 | 74 | 1012.2 |
| 20260505020038 | 59 | 275 | 9.0 | 18.0 | 0.00 | 0.00 | 0.00 | 73 | 1012.1 |
| 20260505014600 | 59 | 285 | 12.0 | 21.0 | 0.00 | 0.00 | 0.00 | 72 | 1012.1 |
| 20260505013046 | 60 | 281 | 8.0 | 19.0 | 0.00 | 0.00 | 0.00 | 71 | 1012.1 |
| 20260505011554 | 61 | 266 | 9.0 | 18.0 | 0.00 | 0.00 | 0.00 | 69 | 1012.1 |
| 20260505010043 | 62 | 269 | 9.0 | 19.0 | 0.00 | 0.00 | 0.00 | 69 | 1011.9 |
| 20260505004541 | 62 | 275 | 11.0 | 20.0 | 0.00 | 0.00 | 0.00 | 69 | 1012.0 |
| 20260505003040 | 63 | 262 | 11.0 | 20.0 | 0.00 | 0.00 | 0.00 | 67 | 1012.3 |
| 20260505001538 | 64 | 281 | 12.0 | 20.0 | 0.00 | 0.00 | 0.00 | 66 | 1012.2 |
| 20260505000048 | 64 | 268 | 10.0 | 18.0 | 0.00 | 0.00 | 0.00 | 66 | 1012.2 |
| 20260504234549 | 66 | 279 | 9.0 | 22.0 | 0.00 | 0.00 | 0.00 | 64 | 1012.3 |
| 20260504233101 | 66 | 291 | 10.0 | 13.0 | 0.00 | 0.00 | 0.00 | 63 | 1012.2 |
| 20260504231544 | 66 | 275 | 8.0 | 16.0 | 0.00 | 0.00 | 0.00 | 64 | 1012.3 |
| 20260504230041 | 67 | 283 | 7.0 | 17.0 | 0.00 | 0.00 | 0.00 | 62 | 1012.3 |
| 20260504224540 | 66 | 284 | 8.0 | 14.0 | 0.00 | 0.00 | 0.00 | 64 | 1012.3 |
| 20260504223054 | 66 | 316 | 9.0 | 18.0 | 0.00 | 0.00 | 0.00 | 64 | 1012.5 |
| 20260504221543 | 66 | 271 | 8.0 | 16.0 | 0.00 | 0.00 | 0.00 | 65 | 1012.5 |
| 20260504220043 | 66 | 272 | 9.0 | 13.0 | 0.00 | 0.00 | 0.00 | 64 | 1012.7 |
| 20260504214537 | 67 | 323 | 8.0 | 17.0 | 0.00 | 0.00 | 0.00 | 64 | 1012.5 |
| 20260504213050 | 67 | 269 | 5.0 | 12.0 | 0.00 | 0.00 | 0.00 | 64 | 1012.8 |
| 20260504211545 | 66 | 265 | 5.0 | 10.0 | 0.00 | 0.00 | 0.00 | 66 | 1012.9 |
| 20260504210040 | 66 | 293 | 8.0 | 16.0 | 0.00 | 0.00 | 0.00 | 65 | 1013.0 |
| 20260504204547 | 66 | 271 | 7.0 | 16.0 | 0.00 | 0.00 | 0.00 | 65 | 1013.1 |
| 20260504203058 | 67 | 309 | 7.0 | 13.0 | 0.00 | 0.00 | 0.00 | 65 | 1013.2 |
| 20260504201542 | 67 | 262 | 5.0 | 10.0 | 0.00 | 0.00 | 0.00 | 64 | 1013.2 |
| 20260504200038 | 67 | 302 | 4.0 | 7.0 | 0.00 | 0.00 | 0.00 | 64 | 1013.3 |
| 20260504194537 | 67 | 283 | 4.0 | 8.0 | 0.00 | 0.00 | 0.00 | 63 | 1013.2 |
| 20260504193044 | 66 | 278 | 3.0 | 11.0 | 0.00 | 0.00 | 0.00 | 64 | 1013.2 |
| 20260504191549 | 65 | 236 | 3.0 | 8.0 | 0.00 | 0.00 | 0.00 | 64 | 1013.2 |
| 20260504190047 | 65 | 288 | 3.0 | 9.0 | 0.00 | 0.00 | 0.00 | 66 | 1013.4 |
| 20260504184543 | 64 | 267 | 2.0 | 6.0 | 0.00 | 0.00 | 0.00 | 67 | 1013.7 |
| 20260504183040 | 63 | 283 | 3.0 | 6.0 | 0.00 | 0.00 | 0.00 | 68 | 1013.8 |
| 20260504181544 | 62 | 283 | 2.0 | 8.0 | 0.00 | 0.00 | 0.00 | 71 | 1013.7 |
| 20260504180037 | 61 | 259 | 3.0 | 5.0 | 0.00 | 0.00 | 0.00 | 71 | 1013.6 |
| 20260504174545 | 60 | 312 | 4.0 | 9.0 | 0.00 | 0.00 | 0.00 | 73 | 1013.8 |
| 20260504173038 | 59 | 301 | 3.0 | 6.0 | 0.00 | 0.00 | 0.00 | 75 | 1013.9 |
| 20260504171547 | 58 | 278 | 5.0 | 8.0 | 0.00 | 0.00 | 0.00 | 76 | 1013.9 |
| 20260504081538 | 54 | 290 | 10.0 | 20.0 | 0.00 | 0.00 | 0.00 | 85 | 1010.5 |
| 20260504044543 | 65 | 287 | 7.0 | 14.0 | 0.00 | 0.00 | 0.00 | 63 | 1009.1 |